Zurück zum Katalog

STARLINK-30966

AktivKommunikationVLEO
NORAD 58454·PAYLOAD·🇺🇸 United States

Gestartet Nov 28, 2023 von Cape Canaveral Space Force Station

Loading…

Nächste Überflüge (nächste 24 Stunden)

TLE

AktuellSource: CelesTrak SupGP

Epoche: Sep 14, 2026, 20:51 UTC

1 58454C 23183T   26257.86923611  .00047666  00000+0  17265-2 0  2579
2 58454  43.0028  53.1292 0001917 277.1299 241.4962 15.27553878    12

Verfolge STARLINK-30966 in Echtzeit mit AllMySat

Download on the App Store